| time (UTC) | temp F | wind direction | speed MPH | gust MPH | rain 1hr in | rain 24hr in | rain mn in | humidity % | barometer mb |
| 20260906194526 | 69 | 286 | 4.0 | 6.0 | 0.00 | 0.00 | 0.00 | 60 | 1015.4 |
| 20260906194022 | 69 | 292 | 2.0 | 3.0 | 0.00 | 0.00 | 0.00 | 60 | 1015.6 |
| 20260906193522 | 69 | 345 | 5.0 | 7.0 | 0.00 | 0.00 | 0.00 | 59 | 1015.4 |
| 20260906193017 | 68 | 321 | 3.0 | 3.0 | 0.00 | 0.00 | 0.00 | 63 | 1015.6 |
| 20260906192513 | 68 | 301 | 4.0 | 6.0 | 0.00 | 0.00 | 0.00 | 63 | 1015.6 |
| 20260906192012 | 68 | 20 | 6.0 | 9.0 | 0.00 | 0.00 | 0.00 | 64 | 1015.7 |
| 20260906191507 | 67 | 330 | 4.0 | 6.0 | 0.00 | 0.00 | 0.00 | 66 | 1015.8 |
| 20260906191006 | 68 | 345 | 7.0 | 8.0 | 0.00 | 0.00 | 0.00 | 64 | 1016.0 |
| 20260906190505 | 68 | 341 | 1.0 | 2.0 | 0.00 | 0.00 | 0.00 | 65 | 1015.8 |
| 20260906190000 | 68 | 265 | 2.0 | 2.0 | 0.00 | 0.00 | 0.00 | 65 | 1015.8 |
| 20260906185459 | 67 | 251 | 2.0 | 3.0 | 0.00 | 0.00 | 0.00 | 67 | 1016.0 |
| 20260906184958 | 67 | 338 | 3.0 | 5.0 | 0.00 | 0.00 | 0.00 | 67 | 1015.9 |
| 20260906184453 | 68 | 314 | 2.0 | 2.0 | 0.00 | 0.00 | 0.00 | 65 | 1015.6 |
| 20260906183948 | 66 | 338 | 4.0 | 5.0 | 0.00 | 0.00 | 0.00 | 67 | 1015.8 |
| 20260906183439 | 66 | 266 | 3.0 | 5.0 | 0.00 | 0.00 | 0.00 | 66 | 1015.7 |
| 20260906182934 | 66 | 331 | 4.0 | 5.0 | 0.00 | 0.00 | 0.00 | 68 | 1015.9 |
| 20260906182430 | 66 | 297 | 4.0 | 6.0 | 0.00 | 0.00 | 0.00 | 67 | 1015.9 |
| 20260906181926 | 68 | 332 | 6.0 | 8.0 | 0.00 | 0.00 | 0.00 | 65 | 1016.0 |
| 20260906181421 | 67 | 279 | 3.0 | 3.0 | 0.00 | 0.00 | 0.00 | 65 | 1015.9 |
| 20260906180917 | 67 | 285 | 4.0 | 7.0 | 0.00 | 0.00 | 0.00 | 65 | 1015.9 |
| 20260906180412 | 67 | 7 | 4.0 | 6.0 | 0.00 | 0.00 | 0.00 | 66 | 1016.3 |
| 20260906175909 | 68 | 7 | 5.0 | 8.0 | 0.00 | 0.00 | 0.00 | 62 | 1016.2 |
| 20260906175405 | 67 | 328 | 4.0 | 6.0 | 0.00 | 0.00 | 0.00 | 65 | 1016.4 |
| 20260906174903 | 67 | 45 | 3.0 | 3.0 | 0.00 | 0.00 | 0.00 | 63 | 1016.2 |
| 20260906174403 | 67 | 357 | 4.0 | 5.0 | 0.00 | 0.00 | 0.00 | 64 | 1016.2 |
| 20260906173857 | 67 | 9 | 3.0 | 6.0 | 0.00 | 0.00 | 0.00 | 65 | 1016.2 |
| 20260906173353 | 66 | 57 | 5.0 | 7.0 | 0.00 | 0.00 | 0.00 | 66 | 1016.4 |
| 20260906172852 | 66 | 327 | 2.0 | 2.0 | 0.00 | 0.00 | 0.00 | 66 | 1016.2 |
| 20260906172348 | 66 | 338 | 4.0 | 5.0 | 0.00 | 0.00 | 0.00 | 66 | 1016.3 |
| 20260906171843 | 65 | 34 | 2.0 | 2.0 | 0.00 | 0.00 | 0.00 | 68 | 1016.4 |
| 20260906171338 | 65 | 353 | 5.0 | 6.0 | 0.00 | 0.00 | 0.00 | 68 | 1016.6 |
| 20260906170833 | 65 | 49 | 3.0 | 3.0 | 0.00 | 0.00 | 0.00 | 69 | 1016.5 |
| 20260906170330 | 64 | 29 | 1.0 | 1.0 | 0.00 | 0.00 | 0.00 | 71 | 1016.4 |
| 20260906165826 | 64 | 319 | 3.0 | 5.0 | 0.00 | 0.00 | 0.00 | 71 | 1016.4 |
| 20260906165325 | 64 | 3 | 3.0 | 5.0 | 0.00 | 0.00 | 0.00 | 70 | 1016.4 |
| 20260906164820 | 65 | 25 | 5.0 | 6.0 | 0.00 | 0.00 | 0.00 | 70 | 1016.5 |
| 20260906164319 | 63 | 289 | 1.0 | 1.0 | 0.00 | 0.00 | 0.00 | 73 | 1016.4 |
| 20260906163815 | 63 | 8 | 1.0 | 2.0 | 0.00 | 0.00 | 0.00 | 74 | 1016.3 |
| 20260906163311 | 62 | 1 | 3.0 | 5.0 | 0.00 | 0.00 | 0.00 | 76 | 1016.2 |
| 20260906162809 | 61 | 308 | 3.0 | 5.0 | 0.00 | 0.00 | 0.00 | 78 | 1016.3 |
| 20260906162308 | 60 | 302 | 2.0 | 2.0 | 0.00 | 0.00 | 0.00 | 80 | 1016.1 |
| 20260906161803 | 60 | 323 | 6.0 | 8.0 | 0.00 | 0.00 | 0.00 | 81 | 1016.3 |
| 20260906161302 | 60 | 290 | 1.0 | 1.0 | 0.00 | 0.00 | 0.00 | 83 | 1016.3 |
| 20260906160801 | 59 | 296 | 3.0 | 3.0 | 0.00 | 0.00 | 0.00 | 83 | 1016.3 |
| 20260906160255 | 59 | 345 | 5.0 | 7.0 | 0.00 | 0.00 | 0.00 | 84 | 1016.3 |
| 20260906155753 | 59 | 292 | 7.0 | 9.0 | 0.00 | 0.00 | 0.00 | 84 | 1016.6 |
| 20260906155242 | 59 | 338 | 3.0 | 6.0 | 0.00 | 0.00 | 0.00 | 84 | 1016.4 |
| 20260906154738 | 59 | 290 | 5.0 | 6.0 | 0.00 | 0.00 | 0.00 | 84 | 1016.4 |
| 20260906154232 | 59 | 322 | 4.0 | 7.0 | 0.00 | 0.00 | 0.00 | 83 | 1016.3 |
| 20260906153731 | 59 | 300 | 2.0 | 3.0 | 0.00 | 0.00 | 0.00 | 83 | 1016.5 |
| 20260906153225 | 59 | 292 | 0.0 | 0.0 | 0.00 | 0.00 | 0.00 | 83 | 1016.3 |
| 20260906152720 | 59 | 317 | 0.0 | 1.0 | 0.00 | 0.00 | 0.00 | 84 | 1016.2 |
| 20260906152215 | 59 | 305 | 2.0 | 2.0 | 0.00 | 0.00 | 0.00 | 84 | 1016.1 |
| 20260906151709 | 59 | 339 | 3.0 | 3.0 | 0.00 | 0.00 | 0.00 | 83 | 1016.2 |
| 20260906151206 | 59 | 356 | 1.0 | 2.0 | 0.00 | 0.00 | 0.00 | 84 | 1016.2 |
| 20260906150701 | 59 | 36 | 4.0 | 5.0 | 0.00 | 0.00 | 0.00 | 85 | 1016.2 |
| 20260906150156 | 59 | 25 | 5.0 | 6.0 | 0.00 | 0.00 | 0.00 | 84 | 1016.3 |
| 20260906145654 | 59 | 351 | 1.0 | 2.0 | 0.00 | 0.00 | 0.00 | 85 | 1016.5 |
| 20260906145149 | 58 | 9 | 2.0 | 2.0 | 0.00 | 0.00 | 0.00 | 86 | 1016.2 |
| 20260906144649 | 58 | 340 | 2.0 | 3.0 | 0.00 | 0.00 | 0.00 | 86 | 1016.1 |
| 20260906144144 | 58 | 6 | 0.0 | 0.0 | 0.00 | 0.00 | 0.00 | 86 | 1016.2 |
| 20260906143643 | 58 | 331 | 0.0 | 0.0 | 0.00 | 0.00 | 0.00 | 87 | 1016.4 |
| 20260906143141 | 57 | 326 | 0.0 | 0.0 | 0.00 | 0.00 | 0.00 | 87 | 1016.2 |
| 20260906142640 | 57 | 323 | 0.0 | 0.0 | 0.00 | 0.00 | 0.00 | 88 | 1016.1 |
| 20260906142135 | 56 | 315 | 0.0 | 0.0 | 0.00 | 0.00 | 0.00 | 89 | 1016.3 |
| 20260906141634 | 56 | 341 | 0.0 | 0.0 | 0.00 | 0.00 | 0.00 | 89 | 1016.2 |
| 20260906141129 | 55 | 342 | 2.0 | 2.0 | 0.00 | 0.00 | 0.00 | 89 | 1016.3 |
| 20260906140628 | 55 | 322 | 1.0 | 1.0 | 0.00 | 0.00 | 0.00 | 89 | 1016.1 |
| 20260906140124 | 55 | 340 | 1.0 | 2.0 | 0.00 | 0.00 | 0.00 | 89 | 1016.2 |
| 20260906135621 | 55 | 333 | 0.0 | 0.0 | 0.00 | 0.00 | 0.00 | 89 | 1016.1 |
| 20260906135116 | 55 | 308 | 0.0 | 0.0 | 0.00 | 0.00 | 0.00 | 89 | 1016.1 |
| 20260906134612 | 55 | 308 | 0.0 | 0.0 | 0.00 | 0.00 | 0.00 | 89 | 1016.1 |
| 20260906134107 | 55 | 319 | 0.0 | 0.0 | 0.00 | 0.00 | 0.00 | 89 | 1016.3 |
| 20260906133603 | 55 | 321 | 0.0 | 0.0 | 0.00 | 0.00 | 0.00 | 89 | 1016.2 |
| 20260906133057 | 55 | 313 | 0.0 | 0.0 | 0.00 | 0.00 | 0.00 | 89 | 1016.0 |
| 20260906132552 | 55 | 333 | 0.0 | 0.0 | 0.00 | 0.00 | 0.00 | 89 | 1016.0 |
| 20260906132048 | 55 | 339 | 0.0 | 0.0 | 0.00 | 0.00 | 0.00 | 89 | 1016.4 |
| 20260906131543 | 55 | 338 | 0.0 | 0.0 | 0.00 | 0.00 | 0.00 | 89 | 1016.2 |
| 20260906131038 | 55 | 317 | 0.0 | 0.0 | 0.00 | 0.00 | 0.00 | 89 | 1016.1 |
| 20260906130538 | 55 | 317 | 0.0 | 0.0 | 0.00 | 0.00 | 0.00 | 89 | 1015.9 |
| 20260906130033 | 55 | 325 | 0.0 | 0.0 | 0.00 | 0.00 | 0.00 | 88 | 1016.0 |
| 20260906125530 | 55 | 333 | 0.0 | 0.0 | 0.00 | 0.00 | 0.00 | 88 | 1015.9 |
| 20260906125025 | 55 | 349 | 0.0 | 0.0 | 0.00 | 0.00 | 0.00 | 88 | 1016.1 |
| 20260906124520 | 55 | 32 | 2.0 | 2.0 | 0.00 | 0.00 | 0.00 | 88 | 1015.9 |
| 20260906124015 | 55 | 328 | 0.0 | 0.0 | 0.00 | 0.00 | 0.00 | 88 | 1015.7 |
| 20260906123514 | 55 | 338 | 0.0 | 0.0 | 0.00 | 0.00 | 0.00 | 88 | 1016.0 |
| 20260906123010 | 55 | 325 | 0.0 | 0.0 | 0.00 | 0.00 | 0.00 | 88 | 1016.1 |
| 20260906122504 | 55 | 349 | 0.0 | 0.0 | 0.00 | 0.00 | 0.00 | 88 | 1016.0 |
| 20260906122000 | 56 | 347 | 0.0 | 0.0 | 0.00 | 0.00 | 0.00 | 88 | 1016.1 |
| 20260906121456 | 56 | 339 | 0.0 | 0.0 | 0.00 | 0.00 | 0.00 | 87 | 1016.3 |
| 20260906120952 | 56 | 339 | 0.0 | 0.0 | 0.00 | 0.00 | 0.00 | 87 | 1016.3 |
| 20260906120447 | 56 | 334 | 0.0 | 0.0 | 0.00 | 0.00 | 0.00 | 87 | 1016.3 |
| 20260906115944 | 56 | 334 | 0.0 | 0.0 | 0.00 | 0.00 | 0.00 | 87 | 1016.3 |
| 20260906115439 | 56 | 42 | 0.0 | 0.0 | 0.00 | 0.00 | 0.00 | 87 | 1016.1 |
| 20260906114938 | 56 | 25 | 0.0 | 0.0 | 0.00 | 0.00 | 0.00 | 87 | 1016.1 |
| 20260906114433 | 56 | 339 | 0.0 | 0.0 | 0.00 | 0.00 | 0.00 | 87 | 1016.1 |
| 20260906113929 | 56 | 330 | 1.0 | 2.0 | 0.00 | 0.00 | 0.00 | 87 | 1016.1 |
| 20260906113427 | 56 | 334 | 1.0 | 1.0 | 0.00 | 0.00 | 0.00 | 87 | 1016.2 |
| 20260906112923 | 56 | 335 | 0.0 | 0.0 | 0.00 | 0.00 | 0.00 | 86 | 1015.9 |
| 20260906112419 | 57 | 331 | 0.0 | 0.0 | 0.00 | 0.00 | 0.00 | 86 | 1016.2 |
| 20260906111914 | 57 | 32 | 1.0 | 1.0 | 0.00 | 0.00 | 0.00 | 86 | 1016.4 |
| 20260906111413 | 57 | 7 | 0.0 | 1.0 | 0.00 | 0.00 | 0.00 | 86 | 1016.2 |
| 20260906110908 | 57 | 19 | 3.0 | 5.0 | 0.00 | 0.00 | 0.00 | 86 | 1016.6 |
| 20260906110404 | 57 | 16 | 4.0 | 5.0 | 0.00 | 0.00 | 0.00 | 86 | 1016.4 |
| 20260906105903 | 57 | 358 | 2.0 | 3.0 | 0.00 | 0.00 | 0.00 | 86 | 1016.2 |
| 20260906105359 | 57 | 20 | 1.0 | 1.0 | 0.00 | 0.00 | 0.00 | 85 | 1016.3 |
| 20260906104854 | 57 | 25 | 2.0 | 2.0 | 0.00 | 0.00 | 0.00 | 85 | 1016.2 |
| 20260906104353 | 57 | 44 | 1.0 | 1.0 | 0.00 | 0.00 | 0.00 | 85 | 1016.3 |
| 20260906103852 | 57 | 22 | 2.0 | 3.0 | 0.00 | 0.00 | 0.00 | 85 | 1016.3 |
| 20260906103350 | 57 | 352 | 2.0 | 3.0 | 0.00 | 0.00 | 0.00 | 85 | 1016.3 |
| 20260906102846 | 57 | 323 | 0.0 | 0.0 | 0.00 | 0.00 | 0.00 | 84 | 1016.2 |
| 20260906102345 | 57 | 354 | 0.0 | 0.0 | 0.00 | 0.00 | 0.00 | 84 | 1016.1 |
| 20260906101840 | 57 | 302 | 0.0 | 0.0 | 0.00 | 0.00 | 0.00 | 83 | 1016.2 |
| 20260906101335 | 57 | 305 | 0.0 | 0.0 | 0.00 | 0.00 | 0.00 | 83 | 1016.1 |
| 20260906100831 | 57 | 310 | 0.0 | 0.0 | 0.00 | 0.00 | 0.00 | 83 | 1016.2 |
| 20260906100330 | 57 | 319 | 0.0 | 0.0 | 0.00 | 0.00 | 0.00 | 82 | 1016.2 |
| 20260906095825 | 58 | 320 | 0.0 | 0.0 | 0.00 | 0.00 | 0.00 | 82 | 1016.2 |
| 20260906095321 | 58 | 321 | 0.0 | 1.0 | 0.00 | 0.00 | 0.00 | 82 | 1016.1 |
| 20260906094820 | 58 | 352 | 0.0 | 0.0 | 0.00 | 0.00 | 0.00 | 82 | 1016.0 |
| 20260906094315 | 58 | 329 | 1.0 | 1.0 | 0.00 | 0.00 | 0.00 | 82 | 1016.0 |
| 20260906093812 | 58 | 345 | 3.0 | 3.0 | 0.00 | 0.00 | 0.00 | 82 | 1016.2 |
| 20260906093307 | 58 | 346 | 0.0 | 0.0 | 0.00 | 0.00 | 0.00 | 82 | 1016.2 |
| 20260906092801 | 57 | 330 | 0.0 | 0.0 | 0.00 | 0.00 | 0.00 | 82 | 1015.9 |
| 20260906092256 | 58 | 314 | 0.0 | 0.0 | 0.00 | 0.00 | 0.00 | 81 | 1015.9 |
| 20260906091752 | 58 | 8 | 0.0 | 0.0 | 0.00 | 0.00 | 0.00 | 81 | 1016.2 |
| 20260906091248 | 58 | 10 | 2.0 | 2.0 | 0.00 | 0.00 | 0.00 | 80 | 1016.1 |
| 20260906090744 | 58 | 4 | 0.0 | 0.0 | 0.00 | 0.00 | 0.00 | 80 | 1016.1 |
| 20260906090243 | 58 | 25 | 1.0 | 2.0 | 0.00 | 0.00 | 0.00 | 80 | 1016.1 |
| 20260906085742 | 58 | 351 | 0.0 | 0.0 | 0.00 | 0.00 | 0.00 | 80 | 1016.2 |
| 20260906085242 | 58 | 339 | 3.0 | 3.0 | 0.00 | 0.00 | 0.00 | 80 | 1016.0 |
| 20260906084736 | 58 | 346 | 2.0 | 2.0 | 0.00 | 0.00 | 0.00 | 80 | 1016.2 |
| 20260906084231 | 58 | 307 | 0.0 | 0.0 | 0.00 | 0.00 | 0.00 | 79 | 1016.4 |
| 20260906083726 | 58 | 307 | 0.0 | 0.0 | 0.00 | 0.00 | 0.00 | 79 | 1016.2 |
| 20260906083221 | 58 | 320 | 1.0 | 1.0 | 0.00 | 0.00 | 0.00 | 78 | 1016.3 |
| 20260906082716 | 59 | 326 | 1.0 | 1.0 | 0.00 | 0.00 | 0.00 | 78 | 1016.3 |
| 20260906082211 | 59 | 322 | 2.0 | 2.0 | 0.00 | 0.00 | 0.00 | 78 | 1016.4 |
| 20260906081708 | 59 | 321 | 2.0 | 3.0 | 0.00 | 0.00 | 0.00 | 77 | 1016.2 |
| 20260906081202 | 59 | 322 | 2.0 | 2.0 | 0.00 | 0.00 | 0.00 | 77 | 1016.2 |
| 20260906080659 | 59 | 321 | 1.0 | 1.0 | 0.00 | 0.00 | 0.00 | 76 | 1016.2 |
| 20260906080155 | 60 | 328 | 0.0 | 0.0 | 0.00 | 0.00 | 0.00 | 75 | 1016.4 |
| 20260906075654 | 60 | 10 | 2.0 | 2.0 | 0.00 | 0.00 | 0.00 | 75 | 1016.3 |
| 20260906075149 | 60 | 340 | 1.0 | 1.0 | 0.00 | 0.00 | 0.00 | 74 | 1016.5 |
| 20260906074644 | 60 | 342 | 1.0 | 2.0 | 0.00 | 0.00 | 0.00 | 74 | 1016.0 |
| 20260906074143 | 60 | 356 | 0.0 | 0.0 | 0.00 | 0.00 | 0.00 | 74 | 1016.1 |
| 20260906073638 | 60 | 344 | 3.0 | 3.0 | 0.00 | 0.00 | 0.00 | 74 | 1016.2 |
| 20260906073134 | 60 | 8 | 3.0 | 3.0 | 0.00 | 0.00 | 0.00 | 73 | 1016.5 |
| 20260906072629 | 60 | 342 | 2.0 | 2.0 | 0.00 | 0.00 | 0.00 | 73 | 1016.3 |
| 20260906072124 | 60 | 327 | 2.0 | 2.0 | 0.00 | 0.00 | 0.00 | 73 | 1016.3 |
| 20260906071621 | 60 | 0 | 3.0 | 5.0 | 0.00 | 0.00 | 0.00 | 73 | 1016.6 |
| 20260906071115 | 61 | 330 | 1.0 | 1.0 | 0.00 | 0.00 | 0.00 | 72 | 1016.4 |
| 20260906070612 | 61 | 351 | 2.0 | 3.0 | 0.00 | 0.00 | 0.00 | 72 | 1016.4 |
| 20260906070107 | 61 | 351 | 3.0 | 5.0 | 0.00 | 0.00 | 0.00 | 72 | 1016.4 |
| 20260906065606 | 61 | 10 | 4.0 | 5.0 | 0.00 | 0.01 | 0.01 | 73 | 1016.4 |
| 20260906065102 | 61 | 352 | 3.0 | 3.0 | 0.00 | 0.01 | 0.01 | 73 | 1016.5 |
| 20260906064558 | 61 | 329 | 3.0 | 3.0 | 0.00 | 0.01 | 0.01 | 72 | 1016.5 |
| 20260906064052 | 61 | 340 | 3.0 | 6.0 | 0.00 | 0.01 | 0.01 | 72 | 1016.5 |
| 20260906063547 | 61 | 340 | 3.0 | 6.0 | 0.00 | 0.01 | 0.01 | 72 | 1016.4 |
| 20260906063044 | 61 | 3 | 5.0 | 6.0 | 0.00 | 0.01 | 0.01 | 72 | 1016.4 |
| 20260906062538 | 61 | 336 | 5.0 | 6.0 | 0.00 | 0.01 | 0.01 | 72 | 1016.5 |
| 20260906062032 | 61 | 313 | 0.0 | 0.0 | 0.00 | 0.01 | 0.01 | 71 | 1016.5 |
| 20260906061529 | 61 | 300 | 1.0 | 1.0 | 0.00 | 0.01 | 0.01 | 71 | 1016.6 |
| 20260906061028 | 62 | 311 | 1.0 | 1.0 | 0.00 | 0.01 | 0.01 | 70 | 1016.5 |
| 20260906060525 | 62 | 340 | 3.0 | 3.0 | 0.00 | 0.01 | 0.01 | 69 | 1016.3 |
| 20260906060022 | 62 | 1 | 3.0 | 5.0 | 0.00 | 0.01 | 0.01 | 69 | 1016.5 |
| 20260906055517 | 62 | 353 | 3.0 | 3.0 | 0.00 | 0.01 | 0.01 | 69 | 1016.6 |
| 20260906055012 | 62 | 337 | 3.0 | 5.0 | 0.00 | 0.01 | 0.01 | 69 | 1016.6 |
| 20260906054507 | 62 | 353 | 3.0 | 3.0 | 0.00 | 0.01 | 0.01 | 69 | 1016.5 |
| 20260906054003 | 62 | 337 | 2.0 | 2.0 | 0.00 | 0.01 | 0.01 | 69 | 1016.6 |
| 20260906053459 | 62 | 355 | 4.0 | 6.0 | 0.00 | 0.01 | 0.01 | 70 | 1016.5 |
| 20260906052954 | 62 | 9 | 3.0 | 6.0 | 0.00 | 0.01 | 0.01 | 70 | 1016.7 |
| 20260906052450 | 62 | 349 | 4.0 | 5.0 | 0.00 | 0.01 | 0.01 | 70 | 1016.6 |
| 20260906051947 | 62 | 350 | 3.0 | 3.0 | 0.00 | 0.01 | 0.01 | 70 | 1016.6 |
| 20260906051442 | 62 | 18 | 5.0 | 8.0 | 0.00 | 0.01 | 0.01 | 70 | 1016.6 |
| 20260906050937 | 62 | 6 | 4.0 | 7.0 | 0.00 | 0.01 | 0.01 | 70 | 1016.6 |
| 20260906050437 | 62 | 9 | 3.0 | 3.0 | 0.00 | 0.01 | 0.01 | 70 | 1016.6 |
| 20260906045936 | 63 | 346 | 2.0 | 2.0 | 0.00 | 0.01 | 0.01 | 70 | 1016.6 |
| 20260906045435 | 63 | 352 | 3.0 | 5.0 | 0.00 | 0.01 | 0.01 | 70 | 1016.6 |
| 20260906044932 | 63 | 3 | 3.0 | 5.0 | 0.00 | 0.01 | 0.01 | 70 | 1016.8 |
| 20260906044426 | 63 | 13 | 3.0 | 3.0 | 0.00 | 0.01 | 0.01 | 70 | 1016.8 |
| 20260906043921 | 63 | 343 | 6.0 | 7.0 | 0.00 | 0.01 | 0.01 | 70 | 1016.7 |
| 20260906043417 | 63 | 359 | 2.0 | 3.0 | 0.00 | 0.01 | 0.01 | 70 | 1016.8 |
| 20260906042913 | 63 | 343 | 5.0 | 6.0 | 0.00 | 0.01 | 0.01 | 69 | 1016.7 |
| 20260906042412 | 63 | 351 | 3.0 | 3.0 | 0.00 | 0.01 | 0.01 | 70 | 1016.7 |
| 20260906041907 | 63 | 358 | 4.0 | 6.0 | 0.00 | 0.01 | 0.01 | 70 | 1016.7 |
| 20260906041402 | 63 | 4 | 7.0 | 9.0 | 0.00 | 0.01 | 0.01 | 71 | 1017.0 |
| 20260906040857 | 63 | 342 | 4.0 | 6.0 | 0.00 | 0.01 | 0.01 | 72 | 1016.8 |
| 20260906040352 | 62 | 309 | 2.0 | 2.0 | 0.00 | 0.01 | 0.01 | 74 | 1016.9 |
| 20260906035848 | 62 | 323 | 3.0 | 5.0 | 0.07 | 0.01 | 0.01 | 74 | 1016.9 |
| 20260906035343 | 63 | 349 | 6.0 | 10.0 | 0.07 | 0.01 | 0.01 | 73 | 1017.1 |
| 20260906034838 | 64 | 326 | 1.0 | 2.0 | 0.00 | 0.00 | 0.00 | 71 | 1017.0 |
| 20260906034333 | 64 | 350 | 1.0 | 2.0 | 0.00 | 0.00 | 0.00 | 68 | 1016.9 |
| 20260906033829 | 65 | 331 | 0.0 | 0.0 | 0.00 | 0.00 | 0.00 | 64 | 1017.1 |
| 20260906033328 | 66 | 328 | 0.0 | 0.0 | 0.00 | 0.00 | 0.00 | 60 | 1016.6 |
| 20260906032825 | 66 | 329 | 0.0 | 0.0 | 0.00 | 0.00 | 0.00 | 58 | 1016.9 |
| 20260906032320 | 66 | 354 | 0.0 | 0.0 | 0.00 | 0.00 | 0.00 | 58 | 1016.7 |
| 20260906031815 | 66 | 357 | 1.0 | 2.0 | 0.00 | 0.00 | 0.00 | 57 | 1016.8 |
| 20260906031311 | 67 | 27 | 0.0 | 0.0 | 0.00 | 0.00 | 0.00 | 55 | 1016.7 |
| 20260906030810 | 66 | 11 | 0.0 | 0.0 | 0.00 | 0.00 | 0.00 | 55 | 1016.6 |
| 20260906030306 | 66 | 319 | 0.0 | 0.0 | 0.00 | 0.00 | 0.00 | 55 | 1016.7 |
| 20260906025805 | 66 | 341 | 0.0 | 0.0 | 0.00 | 0.00 | 0.00 | 55 | 1016.5 |
| 20260906025259 | 66 | 338 | 0.0 | 0.0 | 0.00 | 0.00 | 0.00 | 55 | 1016.4 |
| 20260906024758 | 66 | 341 | 0.0 | 0.0 | 0.00 | 0.00 | 0.00 | 55 | 1016.6 |
| 20260906024257 | 66 | 325 | 0.0 | 0.0 | 0.00 | 0.00 | 0.00 | 56 | 1016.6 |
| 20260906023753 | 66 | 334 | 0.0 | 0.0 | 0.00 | 0.00 | 0.00 | 57 | 1016.4 |
| 20260906023248 | 66 | 337 | 0.0 | 0.0 | 0.00 | 0.00 | 0.00 | 57 | 1016.4 |
| 20260906022744 | 66 | 311 | 0.0 | 0.0 | 0.00 | 0.00 | 0.00 | 59 | 1016.4 |
| 20260906022239 | 66 | 300 | 0.0 | 0.0 | 0.00 | 0.00 | 0.00 | 59 | 1016.4 |
| 20260906021735 | 67 | 290 | 0.0 | 0.0 | 0.00 | 0.00 | 0.00 | 57 | 1016.6 |
| 20260906021234 | 67 | 297 | 2.0 | 2.0 | 0.00 | 0.00 | 0.00 | 56 | 1016.5 |
| 20260906020728 | 68 | 301 | 1.0 | 1.0 | 0.00 | 0.00 | 0.00 | 54 | 1016.6 |
| 20260906020218 | 68 | 303 | 1.0 | 2.0 | 0.00 | 0.00 | 0.00 | 53 | 1016.3 |
| 20260906015718 | 68 | 256 | 3.0 | 3.0 | 0.00 | 0.00 | 0.00 | 53 | 1016.2 |
| 20260906015216 | 69 | 285 | 2.0 | 3.0 | 0.00 | 0.00 | 0.00 | 53 | 1016.3 |
| 20260906014711 | 69 | 299 | 1.0 | 1.0 | 0.00 | 0.00 | 0.00 | 52 | 1016.3 |
| 20260906014207 | 70 | 275 | 1.0 | 1.0 | 0.00 | 0.00 | 0.00 | 52 | 1016.5 |
| 20260906013703 | 70 | 299 | 1.0 | 1.0 | 0.00 | 0.00 | 0.00 | 52 | 1016.3 |
| 20260906013157 | 70 | 300 | 1.0 | 3.0 | 0.00 | 0.00 | 0.00 | 52 | 1016.3 |
| 20260906012657 | 71 | 278 | 0.0 | 1.0 | 0.00 | 0.00 | 0.00 | 50 | 1016.3 |
| 20260906012152 | 71 | 294 | 1.0 | 1.0 | 0.00 | 0.00 | 0.00 | 52 | 1016.3 |
| 20260906011648 | 72 | 303 | 1.0 | 1.0 | 0.00 | 0.00 | 0.00 | 51 | 1016.3 |
| 20260906011142 | 71 | 294 | 3.0 | 5.0 | 0.00 | 0.00 | 0.00 | 52 | 1016.2 |
| 20260906010637 | 72 | 278 | 4.0 | 5.0 | 0.00 | 0.00 | 0.00 | 52 | 1016.2 |
| 20260906010134 | 71 | 254 | 0.0 | 0.0 | 0.00 | 0.00 | 0.00 | 52 | 1016.1 |
| 20260906005633 | 70 | 266 | 5.0 | 6.0 | 0.00 | 0.00 | 0.00 | 54 | 1016.3 |
| 20260906005127 | 72 | 338 | 3.0 | 3.0 | 0.00 | 0.00 | 0.00 | 52 | 1016.0 |
| 20260906004626 | 73 | 306 | 1.0 | 1.0 | 0.00 | 0.00 | 0.00 | 50 | 1016.2 |
| 20260906004121 | 72 | 262 | 0.0 | 1.0 | 0.00 | 0.00 | 0.00 | 52 | 1016.2 |
| 20260906003616 | 73 | 198 | 3.0 | 3.0 | 0.00 | 0.00 | 0.00 | 52 | 1016.0 |
| 20260906003112 | 72 | 243 | 1.0 | 1.0 | 0.00 | 0.00 | 0.00 | 52 | 1016.0 |
| 20260906002607 | 71 | 210 | 0.0 | 0.0 | 0.00 | 0.00 | 0.00 | 54 | 1016.2 |
| 20260906002101 | 71 | 285 | 1.0 | 2.0 | 0.00 | 0.00 | 0.00 | 55 | 1016.1 |
| 20260906001556 | 71 | 156 | 4.0 | 5.0 | 0.00 | 0.00 | 0.00 | 55 | 1016.1 |
| 20260906001051 | 70 | 221 | 0.0 | 0.0 | 0.00 | 0.00 | 0.00 | 54 | 1016.2 |
| 20260906000547 | 70 | 200 | 4.0 | 5.0 | 0.00 | 0.00 | 0.00 | 54 | 1016.2 |
| 20260906000042 | 70 | 163 | 1.0 | 2.0 | 0.00 | 0.00 | 0.00 | 54 | 1016.1 |
| 20260905235541 | 70 | 206 | 2.0 | 2.0 | 0.00 | 0.00 | 0.00 | 54 | 1016.1 |
| 20260905235037 | 71 | 212 | 1.0 | 2.0 | 0.00 | 0.00 | 0.00 | 54 | 1016.2 |
| 20260905234532 | 71 | 276 | 0.0 | 0.0 | 0.00 | 0.00 | 0.00 | 55 | 1016.2 |
| 20260905234027 | 71 | 242 | 0.0 | 0.0 | 0.00 | 0.00 | 0.00 | 56 | 1016.4 |
| 20260905233522 | 70 | 215 | 3.0 | 3.0 | 0.00 | 0.00 | 0.00 | 58 | 1016.2 |
| 20260905233021 | 70 | 15 | 2.0 | 2.0 | 0.00 | 0.00 | 0.00 | 59 | 1016.0 |
| 20260905232517 | 70 | 118 | 0.0 | 1.0 | 0.00 | 0.00 | 0.00 | 60 | 1016.3 |
| 20260905232013 | 71 | 69 | 0.0 | 0.0 | 0.00 | 0.00 | 0.00 | 58 | 1016.3 |
| 20260905231508 | 71 | 78 | 0.0 | 1.0 | 0.00 | 0.00 | 0.00 | 59 | 1016.4 |
| 20260905231004 | 71 | 124 | 0.0 | 1.0 | 0.00 | 0.00 | 0.00 | 57 | 1016.4 |
| 20260905230503 | 70 | 261 | 0.0 | 1.0 | 0.00 | 0.00 | 0.00 | 57 | 1016.4 |
| 20260905230001 | 70 | 184 | 0.0 | 0.0 | 0.00 | 0.00 | 0.00 | 57 | 1016.6 |
| 20260905225456 | 70 | 155 | 2.0 | 3.0 | 0.00 | 0.00 | 0.00 | 61 | 1016.4 |
| 20260905224951 | 69 | 203 | 0.0 | 0.0 | 0.00 | 0.00 | 0.00 | 60 | 1016.5 |
| 20260905224446 | 70 | 187 | 4.0 | 6.0 | 0.00 | 0.00 | 0.00 | 60 | 1016.7 |
| 20260905223945 | 72 | 256 | 0.0 | 0.0 | 0.00 | 0.00 | 0.00 | 57 | 1016.5 |
| 20260905223443 | 70 | 221 | 0.0 | 0.0 | 0.00 | 0.00 | 0.00 | 60 | 1016.8 |
| 20260905222943 | 69 | 157 | 3.0 | 3.0 | 0.00 | 0.00 | 0.00 | 58 | 1016.8 |
| 20260905222438 | 67 | 214 | 1.0 | 2.0 | 0.00 | 0.00 | 0.00 | 62 | 1016.6 |
| 20260905221934 | 67 | 216 | 0.0 | 1.0 | 0.00 | 0.00 | 0.00 | 64 | 1016.8 |
| 20260905221430 | 67 | 143 | 0.0 | 0.0 | 0.00 | 0.00 | 0.00 | 63 | 1016.9 |
| 20260905220926 | 67 | 173 | 2.0 | 3.0 | 0.00 | 0.00 | 0.00 | 64 | 1017.0 |
| 20260905220422 | 67 | 239 | 1.0 | 2.0 | 0.00 | 0.00 | 0.00 | 65 | 1017.0 |
| 20260905215921 | 66 | 260 | 2.0 | 2.0 | 0.00 | 0.00 | 0.00 | 66 | 1017.1 |
| 20260905215416 | 66 | 197 | 3.0 | 5.0 | 0.00 | 0.00 | 0.00 | 66 | 1016.9 |
| 20260905214913 | 66 | 214 | 5.0 | 5.0 | 0.00 | 0.00 | 0.00 | 65 | 1017.1 |
| 20260905214409 | 66 | 200 | 5.0 | 6.0 | 0.00 | 0.00 | 0.00 | 65 | 1017.3 |
| 20260905213908 | 67 | 170 | 5.0 | 7.0 | 0.00 | 0.00 | 0.00 | 65 | 1017.2 |
| 20260905213405 | 67 | 285 | 0.0 | 0.0 | 0.00 | 0.00 | 0.00 | 65 | 1017.1 |
| 20260905212900 | 67 | 259 | 0.0 | 0.0 | 0.00 | 0.00 | 0.00 | 65 | 1017.3 |
| 20260905212400 | 67 | 181 | 5.0 | 6.0 | 0.00 | 0.00 | 0.00 | 65 | 1017.0 |
| 20260905211853 | 67 | 220 | 1.0 | 1.0 | 0.00 | 0.00 | 0.00 | 66 | 1017.1 |
| 20260905211349 | 67 | 245 | 1.0 | 2.0 | 0.00 | 0.00 | 0.00 | 67 | 1017.4 |
| 20260905210846 | 66 | 227 | 3.0 | 3.0 | 0.00 | 0.00 | 0.00 | 67 | 1017.2 |
| 20260905210345 | 67 | 202 | 3.0 | 5.0 | 0.00 | 0.00 | 0.00 | 68 | 1017.3 |
| 20260905205844 | 65 | 236 | 6.0 | 7.0 | 0.00 | 0.00 | 0.00 | 70 | 1017.2 |
| 20260905205339 | 66 | 241 | 0.0 | 2.0 | 0.00 | 0.00 | 0.00 | 69 | 1017.3 |
| 20260905204838 | 66 | 310 | 2.0 | 2.0 | 0.00 | 0.00 | 0.00 | 68 | 1017.2 |
| 20260905204335 | 66 | 218 | 4.0 | 5.0 | 0.00 | 0.00 | 0.00 | 69 | 1017.1 |
| 20260905203833 | 68 | 274 | 1.0 | 2.0 | 0.00 | 0.00 | 0.00 | 67 | 1017.4 |
| 20260905203329 | 68 | 221 | 3.0 | 5.0 | 0.00 | 0.00 | 0.00 | 66 | 1017.5 |
| 20260905202825 | 68 | 183 | 1.0 | 2.0 | 0.00 | 0.00 | 0.00 | 65 | 1017.4 |
| 20260905202320 | 67 | 275 | 4.0 | 8.0 | 0.00 | 0.00 | 0.00 | 66 | 1017.3 |
| 20260905201815 | 67 | 212 | 2.0 | 3.0 | 0.00 | 0.00 | 0.00 | 68 | 1017.4 |
| 20260905201310 | 67 | 199 | 4.0 | 5.0 | 0.00 | 0.00 | 0.00 | 66 | 1017.5 |
| 20260905200804 | 66 | 278 | 3.0 | 5.0 | 0.00 | 0.00 | 0.00 | 70 | 1017.6 |
| 20260905200300 | 66 | 268 | 4.0 | 6.0 | 0.00 | 0.00 | 0.00 | 69 | 1017.4 |
| 20260905195753 | 66 | 264 | 0.0 | 0.0 | 0.00 | 0.00 | 0.00 | 70 | 1017.4 |
| 20260905195248 | 67 | 244 | 2.0 | 5.0 | 0.00 | 0.00 | 0.00 | 68 | 1017.5 |